GLOBALSTAR M047

Satellite information

Favourite Embed

Satellite Type and Status

PAYLOADIN ORBIT

Key statistics

Satellite GLOBALSTAR M047 at a glance.

Uptime

9685

Days in orbit

Revolutions

≈ 11.3

Per day

Orbit

MEO

Medium Earth Orbit

Inclination

52.0

Latest

Satellite identification and parameters

Extended collection of information and parameters for GLOBALSTAR M047.

Object identification

Identified? True

Debris? False

Object name: GLOBALSTAR M047

International designator: 1999-031C

Object number (NORAD): 25772

Object ID (CCSDS): 25772

Country: GLOBALSTAR (GLOB)

Current information (Y/N): Y

RCS size: LARGE

Orbital parameters

Period: 127.216 minutes

Inclination: 51.9813 deg

SMA: 8378.926 km

Apoapsis: 2014.35 km

Periapsis: 1987.232 km

RAAN: 126.6511 deg

Eccentricy: 0.00161825

Argument of periapsis: 207.3778 deg

Mean anomaly: 152.6176 deg

Mean motion: 11.31931723 rev/day

Mean motion (dot): -0.00000082 rev/day2

B* drag term: -0.00034509453 1/REarth

Two-line elements (TLE)

Creation date: Dec. 14, 2025, 11:30 a.m.

Reference frame: TEME

Reference center: EARTH

Epoch: Dec. 13, 2025, 8:31 p.m. UTC

TLE line 0: 0 GLOBALSTAR M047

TLE line 1: 1 25772U 99031C 25347.85507418 -.00000082 00000-0 -34509-3 0 9990

TLE line 2: 2 25772 51.9813 126.6511 0016183 207.3778 152.6176 11.31931723491459

Live tracking on map

Real-time ground track for satellite GLOBALSTAR M047.

In-orbit conjunctions

There are no conjunctions computed for GLOBALSTAR M047, at the moment. Check back to stay up to date, as we update our databases every day.

Go to all conjunctions

Associated space launch

The Globalstar global mobile communications network offers global, digital real time voice, data and fax via a constellation of 48 minisatellites. The constellation operates in a 1410 km orbit inclined at 52 degrees, and will also have 8 spares. The satellites were built by Space Systems Loral and Alenia Aerospazio in Rome, Italy.

GLOBALSTAR M047 was lifted into orbit during the mission ‘Delta 7420-10C | Globalstar 25,47,49,52’, on board a Delta 7420-10C space rocket.

The launch took place on June 10, 1999, 1:48 p.m. from Space Launch Complex 17B.

For more information about the launch, click the button.

Launch to space Delta 7420-10C | Globalstar 25,47,49,52
Delta 7420-10C | Globalstar 25,47,49,52

Agency: N/A

Status: Launch Successful

Launch date: June 10, 1999, 1:48 p.m. UTC

Rocket: Delta 7420-10C

Launch pad: Space Launch Complex 17B

Location: Cape Canaveral SFS, FL, USA

...

Latest news about this satellite

There are no fresh news available about this satellite. Check back as we update our databases every day.


Newsletter sign-up

Weekly statistics, charts and insights to help you stay on top of the space industry.